ARG1289 SAWH-SARI

Flight info

Callsign ARG1289
Flight time 4h 38m
Altitude 33000
Route USU2B GRA T108 GUDUX UT108 PADIM/N0465F350 UT108 VIE UW18 BCA DCT ROS/N0472F360 DCT SAAR/N0472F350 DCT IMBAK DCT IGU
Aircraft B738/M-SDE2E3FGHIRWXY/LB1

Departure

Time 2026-04-07 19:42
Airport Ushuaia - Malvinas Argentinas International Airport (SAWH)

Arrival

Time 2026-04-08 00:21
Airport Cataratas Del Iguazú International Airport (SARI)
Time Latitude Longitude Altitude Speed Heading
2026-04-07 19:13 -54.84012 -68.31273 110 ft 0 kts 34°
2026-04-07 19:30 -54.84016 -68.31278 110 ft 2 kts 34°
2026-04-07 19:30 -54.84031 -68.31293 110 ft 3 kts 23°
2026-04-07 19:30 -54.84050 -68.31302 110 ft 3 kts
2026-04-07 19:30 -54.84070 -68.31301 110 ft 3 kts 349°
2026-04-07 19:31 -54.84090 -68.31290 110 ft 3 kts 334°
2026-04-07 19:31 -54.84107 -68.31271 110 ft 3 kts 319°
2026-04-07 19:31 -54.84114 -68.31259 110 ft 0 kts 313°
2026-04-07 19:35 -54.84114 -68.31260 110 ft 1 kts 313°
2026-04-07 19:35 -54.84102 -68.31312 110 ft 9 kts 265°
2026-04-07 19:35 -54.84160 -68.31365 110 ft 10 kts 173°
2026-04-07 19:35 -54.84216 -68.31340 110 ft 11 kts 133°
2026-04-07 19:36 -54.84221 -68.31155 110 ft 16 kts 85°
2026-04-07 19:36 -54.84217 -68.31021 110 ft 6 kts 96°
2026-04-07 19:36 -54.84268 -68.30977 110 ft 13 kts 177°
2026-04-07 19:36 -54.84354 -68.30969 110 ft 10 kts 176°
2026-04-07 19:37 -54.84384 -68.30859 110 ft 15 kts 88°
2026-04-07 19:37 -54.84377 -68.30639 110 ft 21 kts 86°
2026-04-07 19:37 -54.84366 -68.30362 110 ft 25 kts 86°
2026-04-07 19:37 -54.84354 -68.30044 110 ft 28 kts 86°
2026-04-07 19:38 -54.84343 -68.29702 110 ft 31 kts 86°
2026-04-07 19:38 -54.84332 -68.29300 110 ft 36 kts 86°
2026-04-07 19:38 -54.84312 -68.28846 110 ft 40 kts 85°
2026-04-07 19:38 -54.84290 -68.28377 110 ft 37 kts 85°
2026-04-07 19:39 -54.84274 -68.27995 110 ft 28 kts 86°
2026-04-07 19:39 -54.84261 -68.27701 110 ft 23 kts 84°
2026-04-07 19:39 -54.84224 -68.27494 110 ft 7 kts 79°
2026-04-07 19:39 -54.84252 -68.27466 110 ft 6 kts 215°
2026-04-07 19:40 -54.84256 -68.27526 110 ft 6 kts 281°
2026-04-07 19:40 -54.84253 -68.27562 110 ft 3 kts 268°
2026-04-07 19:40 -54.84254 -68.27566 110 ft 0 kts 266°
2026-04-07 19:41 -54.84254 -68.27574 110 ft 3 kts 267°
2026-04-07 19:41 -54.84257 -68.27728 110 ft 29 kts 265°
2026-04-07 19:41 -54.84287 -68.28413 110 ft 86 kts 266°
2026-04-07 19:42 -54.84339 -68.29760 110 ft 136 kts 266°
2026-04-07 19:42 -54.84401 -68.31584 350 ft 159 kts 267°
2026-04-07 19:42 -54.84582 -68.33504 889 ft 166 kts 249°
2026-04-07 19:42 -54.85314 -68.35109 1408 ft 177 kts 219°
2026-04-07 19:43 -54.86495 -68.35909 1889 ft 190 kts 189°
2026-04-07 19:43 -54.87769 -68.35486 2425 ft 193 kts 153°
2026-04-07 19:43 -54.88718 -68.33843 2945 ft 196 kts 117°
2026-04-07 19:43 -54.88976 -68.31569 3468 ft 196 kts 86°
2026-04-07 19:44 -54.88758 -68.29305 3946 ft 199 kts 77°
2026-04-07 19:44 -54.88462 -68.26925 4423 ft 204 kts 75°
2026-04-07 19:44 -54.88061 -68.24573 4864 ft 208 kts 62°
2026-04-07 19:44 -54.87109 -68.22763 5298 ft 203 kts 27°
2026-04-07 19:45 -54.85785 -68.22147 5738 ft 194 kts 356°
2026-04-07 19:45 -54.84436 -68.21713 6160 ft 208 kts 17°
2026-04-07 19:45 -54.83278 -68.20017 6417 ft 230 kts 50°
2026-04-07 19:45 -54.82710 -68.17363 6778 ft 241 kts 81°
2026-04-07 19:46 -54.82926 -68.14509 7138 ft 244 kts 113°
2026-04-07 19:46 -54.83870 -68.12184 7626 ft 228 kts 144°
2026-04-07 19:46 -54.85108 -68.10522 8076 ft 228 kts 145°
2026-04-07 19:46 -54.85997 -68.08132 8362 ft 245 kts 113°
2026-04-07 19:47 -54.86173 -68.05113 8586 ft 262 kts 83°
2026-04-07 19:47 -54.85544 -68.02071 8758 ft 274 kts 52°
2026-04-07 19:47 -54.84217 -67.99727 9000 ft 280 kts 26°
2026-04-07 19:47 -54.82435 -67.98281 9300 ft 287 kts
2026-04-07 19:48 -54.80497 -67.97112 9773 ft 301 kts 12°
2026-04-07 19:48 -54.78512 -67.95818 10365 ft 308 kts 12°
2026-04-07 19:48 -54.76463 -67.94491 10832 ft 321 kts 12°
2026-04-07 19:48 -54.74329 -67.93121 11103 ft 339 kts 12°
2026-04-07 19:49 -54.72055 -67.91670 11354 ft 357 kts 13°
2026-04-07 19:49 -54.69667 -67.90154 11628 ft 374 kts 14°
2026-04-07 19:49 -54.67163 -67.88570 11858 ft 391 kts 14°
2026-04-07 19:49 -54.64566 -67.86932 12223 ft 402 kts 14°
2026-04-07 19:50 -54.61921 -67.85268 12791 ft 407 kts 14°
2026-04-07 19:50 -54.59246 -67.83588 13387 ft 410 kts 14°
2026-04-07 19:50 -54.56551 -67.81897 13990 ft 413 kts 14°
2026-04-07 19:50 -54.53809 -67.80338 14552 ft 414 kts
2026-04-07 19:51 -54.51038 -67.79306 15099 ft 412 kts
2026-04-07 19:51 -54.48194 -67.78817 15647 ft 411 kts 357°
2026-04-07 19:51 -54.45329 -67.78581 16174 ft 413 kts 355°
2026-04-07 19:51 -54.42443 -67.78423 16693 ft 417 kts 355°
2026-04-07 19:52 -54.39533 -67.78261 17200 ft 420 kts 356°
2026-04-07 19:52 -54.36597 -67.78094 17692 ft 423 kts 356°
2026-04-07 19:52 -54.33637 -67.77922 18181 ft 426 kts 355°
2026-04-07 19:52 -54.30665 -67.77748 18686 ft 429 kts 355°
2026-04-07 19:53 -54.27674 -67.77572 19171 ft 431 kts 355°
2026-04-07 19:53 -54.24666 -67.77394 19645 ft 434 kts 355°
2026-04-07 19:53 -54.21641 -67.77214 20108 ft 436 kts 355°
2026-04-07 19:53 -54.18611 -67.77033 20698 ft 435 kts 356°
2026-04-07 19:54 -54.15617 -67.76852 21074 ft 439 kts 356°
2026-04-07 19:54 -54.12557 -67.76668 21459 ft 442 kts 356°
2026-04-07 19:54 -54.09475 -67.76483 21853 ft 444 kts 356°
2026-04-07 19:54 -54.06367 -67.76295 22235 ft 447 kts 356°
2026-04-07 19:55 -54.03250 -67.76108 22611 ft 450 kts 356°
2026-04-07 19:55 -54.00109 -67.75920 22973 ft 452 kts 356°
2026-04-07 19:55 -53.96956 -67.75732 23331 ft 455 kts 356°
2026-04-07 19:55 -53.93787 -67.75544 23692 ft 457 kts 356°
2026-04-07 19:56 -53.90601 -67.75356 24037 ft 459 kts 356°
2026-04-07 19:56 -53.87401 -67.75166 24373 ft 461 kts 356°
2026-04-07 19:56 -53.84188 -67.74976 24699 ft 463 kts 356°
2026-04-07 19:56 -53.80960 -67.74765 25018 ft 466 kts 357°
2026-04-07 19:57 -53.77747 -67.74212 25345 ft 471 kts
2026-04-07 19:57 -53.74494 -67.73148 25631 ft 478 kts
2026-04-07 19:57 -53.71259 -67.71723 25863 ft 484 kts
2026-04-07 19:57 -53.67995 -67.70153 26114 ft 486 kts 10°
2026-04-07 19:58 -53.65837 -67.69118 26291 ft 488 kts 10°
2026-04-07 19:58 -53.62570 -67.67555 26599 ft 488 kts 10°
2026-04-07 19:58 -53.59304 -67.66002 26967 ft 488 kts 10°
2026-04-07 19:58 -53.56034 -67.64455 27322 ft 487 kts
2026-04-07 19:59 -53.52765 -67.62913 27668 ft 487 kts
2026-04-07 19:59 -53.49502 -67.61379 28010 ft 486 kts
2026-04-07 19:59 -53.46238 -67.59848 28351 ft 486 kts
2026-04-07 19:59 -53.43021 -67.58334 28680 ft 486 kts
2026-04-07 20:00 -53.39771 -67.56800 29004 ft 485 kts
2026-04-07 20:00 -53.36510 -67.55266 29331 ft 485 kts
2026-04-07 20:00 -53.30006 -67.52222 29935 ft 485 kts
2026-04-07 20:01 -53.26756 -67.50708 30237 ft 485 kts
2026-04-07 20:01 -53.23506 -67.49196 30569 ft 483 kts
2026-04-07 20:01 -53.20297 -67.47706 31102 ft 477 kts
2026-04-07 20:01 -53.17128 -67.46238 31313 ft 479 kts
2026-04-07 20:02 -53.13910 -67.44749 31543 ft 480 kts
2026-04-07 20:02 -53.10694 -67.43264 31831 ft 479 kts
2026-04-07 20:02 -53.07475 -67.41780 32098 ft 479 kts
2026-04-07 20:02 -53.04257 -67.40290 32361 ft 479 kts
2026-04-07 20:03 -53.01038 -67.38801 32623 ft 479 kts
2026-04-07 20:03 -52.97820 -67.37321 32862 ft 480 kts
2026-04-07 20:03 -52.91355 -67.34364 32871 ft 481 kts
2026-04-07 20:04 -52.84961 -67.31453 32879 ft 478 kts
2026-04-07 20:04 -52.78534 -67.28535 32876 ft 479 kts
2026-04-07 20:05 -52.72105 -67.25624 32876 ft 479 kts
2026-04-07 20:05 -52.65650 -67.22715 32876 ft 480 kts
2026-04-07 20:06 -52.59204 -67.19820 32876 ft 479 kts
2026-04-07 20:06 -52.52797 -67.16953 32876 ft 480 kts
2026-04-07 20:07 -52.46458 -67.14124 32871 ft 459 kts
2026-04-07 20:07 -52.40410 -67.11427 32889 ft 443 kts
2026-04-07 20:08 -52.34492 -67.08773 32934 ft 441 kts
2026-04-07 20:08 -52.28562 -67.06127 32955 ft 442 kts
2026-04-07 20:09 -52.22625 -67.03491 32964 ft 442 kts
2026-04-07 20:09 -52.16666 -67.00854 32965 ft 443 kts
2026-04-07 20:10 -52.10742 -66.98241 32964 ft 443 kts
2026-04-07 20:10 -52.04785 -66.95622 32964 ft 443 kts
2026-04-07 20:11 -51.98829 -66.93011 32964 ft 443 kts
2026-04-07 20:11 -51.92895 -66.90418 32964 ft 443 kts
2026-04-07 20:12 -51.86928 -66.87817 32964 ft 443 kts
2026-04-07 20:12 -51.80960 -66.85223 32964 ft 443 kts
2026-04-07 20:13 -51.75036 -66.82655 32964 ft 443 kts
2026-04-07 20:13 -51.69079 -66.80080 32965 ft 441 kts
2026-04-07 20:14 -51.63191 -66.77541 32964 ft 439 kts
2026-04-07 20:14 -51.57273 -66.74997 32964 ft 438 kts
2026-04-07 20:15 -51.51423 -66.72489 32964 ft 438 kts
2026-04-07 20:15 -51.45523 -66.69965 32964 ft 438 kts
2026-04-07 20:16 -51.39619 -66.67447 32964 ft 439 kts
2026-04-07 20:16 -51.33715 -66.64936 32964 ft 439 kts
2026-04-07 20:17 -51.27805 -66.62428 32964 ft 439 kts
2026-04-07 20:17 -51.21887 -66.59924 32964 ft 439 kts
2026-04-07 20:18 -51.16013 -66.57446 32964 ft 439 kts
2026-04-07 20:18 -51.10104 -66.54959 32964 ft 438 kts
2026-04-07 20:19 -51.04193 -66.52477 32964 ft 439 kts
2026-04-07 20:19 -50.98320 -66.50019 32964 ft 439 kts
2026-04-07 20:20 -50.92407 -66.47549 32964 ft 439 kts
2026-04-07 20:20 -50.86493 -66.45087 32964 ft 439 kts
2026-04-07 20:21 -50.80580 -66.42630 32965 ft 439 kts
2026-04-07 20:21 -50.74684 -66.40188 32964 ft 438 kts
2026-04-07 20:22 -50.68808 -66.37760 32964 ft 434 kts
2026-04-07 20:22 -50.62993 -66.35363 32964 ft 435 kts
2026-04-07 20:23 -50.57126 -66.32951 32964 ft 436 kts
2026-04-07 20:23 -50.51253 -66.30543 32964 ft 435 kts
2026-04-07 20:24 -50.45387 -66.28143 32964 ft 435 kts
2026-04-07 20:24 -50.39525 -66.25752 32964 ft 436 kts
2026-04-07 20:25 -50.33694 -66.23379 32964 ft 435 kts
2026-04-07 20:25 -50.27821 -66.20995 32964 ft 435 kts
2026-04-07 20:26 -50.21952 -66.18619 32964 ft 436 kts
2026-04-07 20:26 -50.16066 -66.16242 32964 ft 437 kts
2026-04-07 20:27 -50.10182 -66.13872 32964 ft 436 kts
2026-04-07 20:27 -50.04302 -66.11509 32964 ft 436 kts
2026-04-07 20:28 -49.98459 -66.09167 32964 ft 435 kts
2026-04-07 20:28 -49.92594 -66.06816 32964 ft 435 kts
2026-04-07 20:29 -49.86719 -66.04463 32964 ft 436 kts
2026-04-07 20:29 -49.80835 -66.02123 32964 ft 436 kts
2026-04-07 20:30 -49.74987 -65.99808 32964 ft 436 kts
2026-04-07 20:30 -49.69100 -65.97482 32965 ft 438 kts
2026-04-07 20:31 -49.63170 -65.95144 32964 ft 439 kts
2026-04-07 20:31 -49.57247 -65.92809 32963 ft 438 kts
2026-04-07 20:32 -49.51371 -65.90500 32965 ft 439 kts
2026-04-07 20:32 -49.45446 -65.88178 32964 ft 439 kts
2026-04-07 20:33 -49.39526 -65.85864 32964 ft 439 kts
2026-04-07 20:33 -49.33602 -65.83555 32964 ft 439 kts
2026-04-07 20:34 -49.27681 -65.81243 32964 ft 439 kts
2026-04-07 20:34 -49.21763 -65.78927 32964 ft 439 kts
2026-04-07 20:35 -49.15866 -65.76628 33003 ft 439 kts
2026-04-07 20:35 -49.09922 -65.74321 33038 ft 440 kts
2026-04-07 20:36 -49.03996 -65.72028 33055 ft 438 kts
2026-04-07 20:36 -48.98085 -65.69747 33067 ft 438 kts
2026-04-07 20:37 -48.92174 -65.67472 33073 ft 438 kts
2026-04-07 20:37 -48.86281 -65.65211 33075 ft 438 kts
2026-04-07 20:38 -48.80359 -65.62944 33084 ft 438 kts
2026-04-07 20:38 -48.74463 -65.60692 33084 ft 438 kts
2026-04-07 20:39 -48.68538 -65.58435 33085 ft 439 kts
2026-04-07 20:39 -48.62595 -65.56177 33095 ft 440 kts
2026-04-07 20:40 -48.56684 -65.53935 33098 ft 440 kts
2026-04-07 20:40 -48.50743 -65.51689 33099 ft 440 kts
2026-04-07 20:41 -48.44803 -65.49448 33110 ft 440 kts
2026-04-07 20:41 -48.38851 -65.47208 33114 ft 440 kts
2026-04-07 20:42 -48.32918 -65.44980 33118 ft 439 kts
2026-04-07 20:42 -48.27015 -65.42769 33125 ft 439 kts
2026-04-07 20:43 -48.21086 -65.40553 33125 ft 439 kts
2026-04-07 20:43 -48.15168 -65.38347 33125 ft 435 kts
2026-04-07 20:44 -48.09320 -65.36172 33132 ft 435 kts
2026-04-07 20:44 -48.03438 -65.33990 33131 ft 435 kts
2026-04-07 20:45 -47.97548 -65.31809 33133 ft 435 kts
2026-04-07 20:45 -47.91666 -65.29637 33136 ft 435 kts
2026-04-07 20:46 -47.86775 -65.27835 33136 ft 435 kts
2026-04-07 20:46 -47.80878 -65.25666 33139 ft 435 kts
2026-04-07 20:47 -47.74998 -65.23498 33142 ft 435 kts
2026-04-07 20:47 -47.69148 -65.21353 33142 ft 435 kts
2026-04-07 20:48 -47.63267 -65.19207 33142 ft 435 kts
2026-04-07 20:48 -47.57385 -65.17068 33142 ft 435 kts
2026-04-07 20:49 -47.51509 -65.14936 33142 ft 434 kts
2026-04-07 20:49 -47.45671 -65.12817 33141 ft 435 kts
2026-04-07 20:50 -47.39790 -65.10679 33142 ft 435 kts
2026-04-07 20:50 -47.33913 -65.08549 33141 ft 434 kts
2026-04-07 20:51 -47.28029 -65.06421 33142 ft 435 kts
2026-04-07 20:51 -47.22181 -65.04311 33142 ft 435 kts
2026-04-07 20:52 -47.16281 -65.02187 33142 ft 436 kts
2026-04-07 20:52 -47.10417 -65.00069 33141 ft 436 kts
2026-04-07 20:53 -47.04529 -64.97943 33142 ft 435 kts
2026-04-07 20:53 -46.98637 -64.95825 33142 ft 436 kts
2026-04-07 20:54 -46.92781 -64.93727 33141 ft 436 kts
2026-04-07 20:54 -46.86879 -64.91618 33142 ft 436 kts
2026-04-07 20:55 -46.80986 -64.89518 33141 ft 436 kts
2026-04-07 20:55 -46.75118 -64.87431 33141 ft 435 kts
2026-04-07 20:56 -46.69207 -64.85334 33141 ft 432 kts
2026-04-07 20:56 -46.63410 -64.83283 33142 ft 431 kts
2026-04-07 20:57 -46.57575 -64.81222 33141 ft 431 kts
2026-04-07 20:57 -46.51728 -64.79162 33142 ft 431 kts
2026-04-07 20:58 -46.45896 -64.77111 33141 ft 431 kts
2026-04-07 20:58 -46.40095 -64.75064 33142 ft 431 kts
2026-04-07 20:59 -46.34254 -64.73017 33142 ft 431 kts
2026-04-07 20:59 -46.28437 -64.70988 33142 ft 429 kts
2026-04-07 21:00 -46.19755 -64.67970 33143 ft 428 kts
2026-04-07 21:01 -46.14006 -64.65975 33141 ft 422 kts
2026-04-07 21:01 -46.08290 -64.64036 33142 ft 422 kts
2026-04-07 21:02 -46.02561 -64.62105 33141 ft 422 kts
2026-04-07 21:02 -45.96868 -64.60190 33141 ft 422 kts
2026-04-07 21:03 -45.91145 -64.58269 33142 ft 422 kts
2026-04-07 21:03 -45.85418 -64.56351 33141 ft 422 kts
2026-04-07 21:04 -45.79719 -64.54444 33142 ft 422 kts
2026-04-07 21:04 -45.73994 -64.52519 33142 ft 422 kts
2026-04-07 21:05 -45.68280 -64.50605 33142 ft 420 kts
2026-04-07 21:05 -45.62580 -64.48704 33141 ft 420 kts
2026-04-07 21:06 -45.56892 -64.46811 33142 ft 420 kts
2026-04-07 21:06 -45.51193 -64.44919 33141 ft 420 kts
2026-04-07 21:07 -45.45536 -64.43046 33142 ft 420 kts
2026-04-07 21:07 -45.39841 -64.41164 33141 ft 420 kts
2026-04-07 21:08 -45.34145 -64.39286 33142 ft 420 kts
2026-04-07 21:08 -45.28445 -64.37402 33142 ft 420 kts
2026-04-07 21:09 -45.22773 -64.35535 33141 ft 420 kts
2026-04-07 21:09 -45.17099 -64.33677 33141 ft 416 kts
2026-04-07 21:10 -45.11452 -64.31833 33142 ft 416 kts
2026-04-07 21:10 -45.05804 -64.29993 33141 ft 416 kts
2026-04-07 21:11 -45.00162 -64.28156 33142 ft 416 kts
2026-04-07 21:11 -44.94555 -64.26316 33142 ft 416 kts
2026-04-07 21:12 -44.88912 -64.24468 33141 ft 416 kts
2026-04-07 21:12 -44.83255 -64.22620 33142 ft 416 kts
2026-04-07 21:13 -44.77615 -64.20781 33142 ft 416 kts
2026-04-07 21:13 -44.71970 -64.18945 33142 ft 416 kts
2026-04-07 21:14 -44.66354 -64.17119 33142 ft 416 kts
2026-04-07 21:14 -44.60711 -64.15275 33141 ft 416 kts
2026-04-07 21:15 -44.55073 -64.13441 33142 ft 416 kts
2026-04-07 21:15 -44.49426 -64.11609 33141 ft 416 kts
2026-04-07 21:16 -44.43776 -64.09782 33142 ft 416 kts
2026-04-07 21:16 -44.38163 -64.07971 33142 ft 416 kts
2026-04-07 21:17 -44.32516 -64.06153 33134 ft 416 kts
2026-04-07 21:17 -44.26856 -64.04334 33118 ft 416 kts
2026-04-07 21:18 -44.21199 -64.02520 33112 ft 416 kts
2026-04-07 21:18 -44.15585 -64.00724 33112 ft 417 kts
2026-04-07 21:19 -44.09928 -63.98917 33112 ft 417 kts
2026-04-07 21:19 -44.04268 -63.97113 33112 ft 417 kts
2026-04-07 21:20 -43.98613 -63.95314 33112 ft 417 kts
2026-04-07 21:20 -43.92956 -63.93517 33112 ft 417 kts
2026-04-07 21:21 -43.87288 -63.91721 33112 ft 418 kts
2026-04-07 21:21 -43.81616 -63.89927 33112 ft 417 kts
2026-04-07 21:22 -43.75990 -63.88149 33112 ft 417 kts
2026-04-07 21:22 -43.70325 -63.86356 33112 ft 417 kts
2026-04-07 21:23 -43.64656 -63.84572 33112 ft 417 kts
2026-04-07 21:23 -43.58983 -63.82794 33112 ft 417 kts
2026-04-07 21:24 -43.53349 -63.81032 33112 ft 417 kts
2026-04-07 21:24 -43.47690 -63.79266 33112 ft 416 kts
2026-04-07 21:25 -43.42036 -63.77491 33112 ft 416 kts
2026-04-07 21:25 -43.36424 -63.75723 33112 ft 417 kts
2026-04-07 21:26 -43.30750 -63.73940 33110 ft 417 kts
2026-04-07 21:26 -43.25047 -63.72152 33112 ft 423 kts
2026-04-07 21:27 -43.19335 -63.70365 33112 ft 423 kts
2026-04-07 21:27 -43.13599 -63.68573 33112 ft 423 kts
2026-04-07 21:28 -43.07855 -63.66772 33112 ft 423 kts
2026-04-07 21:28 -43.02117 -63.64974 33112 ft 423 kts
2026-04-07 21:29 -42.96404 -63.63190 33112 ft 423 kts
2026-04-07 21:29 -42.90665 -63.61403 33112 ft 423 kts
2026-04-07 21:30 -42.84930 -63.59622 33112 ft 423 kts
2026-04-07 21:30 -42.79189 -63.57842 33112 ft 423 kts
2026-04-07 21:31 -42.73448 -63.56067 33112 ft 423 kts
2026-04-07 21:31 -42.67708 -63.54295 33112 ft 422 kts
2026-04-07 21:32 -42.62016 -63.52542 33112 ft 422 kts
2026-04-07 21:32 -42.56281 -63.50778 33112 ft 422 kts
2026-04-07 21:33 -42.50540 -63.49017 33112 ft 423 kts
2026-04-07 21:33 -42.44788 -63.47255 33112 ft 423 kts
2026-04-07 21:34 -42.40019 -63.45796 33112 ft 423 kts
2026-04-07 21:34 -42.33345 -63.43760 33112 ft 423 kts
2026-04-07 21:35 -42.28533 -63.42294 33112 ft 423 kts
2026-04-07 21:35 -42.21856 -63.40264 33112 ft 423 kts
2026-04-07 21:36 -42.17079 -63.38814 33112 ft 423 kts
2026-04-07 21:36 -42.11337 -63.37074 33112 ft 423 kts
2026-04-07 21:37 -42.05590 -63.35336 33112 ft 423 kts
2026-04-07 21:37 -41.99841 -63.33601 33112 ft 423 kts
2026-04-07 21:38 -41.94089 -63.31868 33112 ft 423 kts
2026-04-07 21:38 -41.88385 -63.30152 33112 ft 422 kts
2026-04-07 21:39 -41.82653 -63.28432 33112 ft 422 kts
2026-04-07 21:39 -41.76928 -63.26716 33112 ft 422 kts
2026-04-07 21:40 -41.71187 -63.24999 33112 ft 422 kts
2026-04-07 21:40 -41.65489 -63.23298 33112 ft 421 kts
2026-04-07 21:41 -41.59763 -63.21592 33112 ft 420 kts
2026-04-07 21:41 -41.54095 -63.19906 33112 ft 420 kts
2026-04-07 21:42 -41.48378 -63.18208 33112 ft 420 kts
2026-04-07 21:42 -41.42650 -63.16510 33112 ft 421 kts
2026-04-07 21:43 -41.36928 -63.14817 33112 ft 421 kts
2026-04-07 21:43 -41.31203 -63.13126 33112 ft 421 kts
2026-04-07 21:44 -41.25512 -63.11448 33112 ft 421 kts
2026-04-07 21:44 -41.19780 -63.09761 33112 ft 421 kts
2026-04-07 21:45 -41.14082 -63.08080 33112 ft 421 kts
2026-04-07 21:45 -41.08356 -63.06399 33112 ft 420 kts
2026-04-07 21:46 -41.02656 -63.04732 33112 ft 424 kts
2026-04-07 21:46 -40.96879 -63.03046 33112 ft 425 kts
2026-04-07 21:47 -40.91108 -63.01366 33112 ft 425 kts
2026-04-07 21:47 -40.85328 -62.99704 33112 ft 424 kts
2026-04-07 21:48 -40.79532 -62.98259 33112 ft 423 kts
2026-04-07 21:48 -40.73766 -62.96834 33112 ft 424 kts
2026-04-07 21:49 -40.67956 -62.95395 33112 ft 425 kts
2026-04-07 21:49 -40.62133 -62.93952 33112 ft 425 kts
2026-04-07 21:50 -40.56353 -62.92520 33112 ft 425 kts
2026-04-07 21:50 -40.50541 -62.91076 33112 ft 425 kts
2026-04-07 21:51 -40.44730 -62.89631 33112 ft 425 kts
2026-04-07 21:51 -40.38916 -62.88190 33112 ft 425 kts
2026-04-07 21:52 -40.33094 -62.86750 33112 ft 425 kts
2026-04-07 21:52 -40.27315 -62.85324 33112 ft 425 kts
2026-04-07 21:53 -40.21479 -62.83887 33121 ft 428 kts
2026-04-07 21:53 -40.15611 -62.82444 33121 ft 429 kts
2026-04-07 21:54 -40.09744 -62.81004 33121 ft 429 kts
2026-04-07 21:54 -40.03874 -62.79567 33124 ft 429 kts
2026-04-07 21:55 -39.98035 -62.78139 33125 ft 429 kts
2026-04-07 21:55 -39.92162 -62.76705 33125 ft 429 kts
2026-04-07 21:56 -39.86291 -62.75275 33128 ft 429 kts
2026-04-07 21:56 -39.80416 -62.73842 33129 ft 430 kts
2026-04-07 21:57 -39.74555 -62.72415 33129 ft 431 kts
2026-04-07 21:57 -39.68658 -62.70986 33131 ft 431 kts
2026-04-07 21:58 -39.62763 -62.69561 33132 ft 431 kts
2026-04-07 21:58 -39.56848 -62.68135 33134 ft 431 kts
2026-04-07 21:59 -39.51010 -62.66411 33136 ft 436 kts 13°
2026-04-07 21:59 -39.45382 -62.63346 33137 ft 440 kts 22°
2026-04-07 22:00 -39.39921 -62.59751 33137 ft 440 kts 23°
2026-04-07 22:00 -39.34455 -62.56168 33138 ft 440 kts 22°
2026-04-07 22:01 -39.29012 -62.52619 33138 ft 440 kts 22°
2026-04-07 22:01 -39.23529 -62.49057 33139 ft 440 kts 23°
2026-04-07 22:02 -39.18084 -62.45518 33144 ft 433 kts 23°
2026-04-07 22:02 -39.12760 -62.42056 33135 ft 433 kts 23°
2026-04-07 22:03 -39.07317 -62.38531 33140 ft 440 kts 23°
2026-04-07 22:03 -38.99102 -62.33218 33140 ft 439 kts 23°
2026-04-07 22:04 -38.93666 -62.29709 33140 ft 439 kts 23°
2026-04-07 22:04 -38.88190 -62.26192 33140 ft 439 kts 23°
2026-04-07 22:05 -38.82748 -62.22706 33141 ft 439 kts 23°
2026-04-07 22:05 -38.77276 -62.19207 33141 ft 439 kts 23°
2026-04-07 22:06 -38.71692 -62.16058 33141 ft 437 kts 16°
2026-04-07 22:06 -38.68771 -62.14993 33033 ft 435 kts 11°
2026-04-07 22:06 -38.65819 -62.14180 32959 ft 434 kts
2026-04-07 22:07 -38.59920 -62.12709 32880 ft 435 kts
2026-04-07 22:07 -38.53971 -62.11220 32844 ft 435 kts
2026-04-07 22:08 -38.48057 -62.09734 32833 ft 435 kts
2026-04-07 22:08 -38.42101 -62.08235 32835 ft 435 kts
2026-04-07 22:09 -38.36153 -62.06734 32837 ft 435 kts
2026-04-07 22:09 -38.30205 -62.05227 32843 ft 435 kts
2026-04-07 22:10 -38.24296 -62.03734 32859 ft 435 kts
2026-04-07 22:10 -38.18342 -62.02233 32866 ft 439 kts
2026-04-07 22:11 -38.12326 -62.00719 32875 ft 439 kts
2026-04-07 22:11 -38.06379 -61.99225 32896 ft 438 kts
2026-04-07 22:12 -38.00401 -61.97726 32912 ft 437 kts
2026-04-07 22:12 -37.94427 -61.96231 32929 ft 437 kts
2026-04-07 22:13 -37.88456 -61.94739 32948 ft 436 kts
2026-04-07 22:13 -37.82529 -61.93260 32950 ft 436 kts
2026-04-07 22:14 -37.76573 -61.91777 32959 ft 436 kts
2026-04-07 22:14 -37.70608 -61.90294 32970 ft 437 kts 10°
2026-04-07 22:15 -37.64618 -61.88806 32964 ft 440 kts 11°
2026-04-07 22:15 -37.58604 -61.87316 32970 ft 440 kts 11°
2026-04-07 22:16 -37.52594 -61.85829 32962 ft 440 kts 11°
2026-04-07 22:16 -37.46617 -61.84352 32951 ft 440 kts 11°
2026-04-07 22:17 -37.40603 -61.82869 32954 ft 440 kts 11°
2026-04-07 22:17 -37.34580 -61.81386 32958 ft 440 kts 11°
2026-04-07 22:18 -37.28559 -61.79906 32952 ft 440 kts 11°
2026-04-07 22:18 -37.22574 -61.78437 32949 ft 441 kts 11°
2026-04-07 22:19 -37.16522 -61.76955 32948 ft 445 kts 11°
2026-04-07 22:19 -37.10430 -61.75464 32940 ft 446 kts 11°
2026-04-07 22:20 -37.04340 -61.73977 32927 ft 446 kts 11°
2026-04-07 22:20 -36.98220 -61.72485 32922 ft 448 kts 11°
2026-04-07 22:21 -36.92137 -61.71004 32915 ft 448 kts 11°
2026-04-07 22:21 -36.86014 -61.69516 32904 ft 449 kts 11°
2026-04-07 22:22 -36.79884 -61.68029 32896 ft 449 kts 11°
2026-04-07 22:22 -36.73749 -61.66543 32891 ft 449 kts 11°
2026-04-07 22:23 -36.67589 -61.65053 32876 ft 455 kts 11°
2026-04-07 22:23 -36.61339 -61.63544 32874 ft 461 kts 11°
2026-04-07 22:24 -36.55047 -61.62027 32872 ft 459 kts 11°
2026-04-07 22:24 -36.48759 -61.60514 32859 ft 459 kts 11°
2026-04-07 22:25 -36.42513 -61.59014 32853 ft 459 kts 11°
2026-04-07 22:25 -36.37288 -61.57760 32849 ft 460 kts 11°
2026-04-07 22:26 -36.31000 -61.56254 32839 ft 460 kts 11°
2026-04-07 22:26 -36.24713 -61.54751 32837 ft 460 kts 11°
2026-04-07 22:27 -36.18425 -61.53250 32834 ft 465 kts 11°
2026-04-07 22:27 -36.12000 -61.51718 32827 ft 470 kts 11°
2026-04-07 22:28 -36.05579 -61.50190 32822 ft 469 kts 11°
2026-04-07 22:28 -35.99215 -61.48679 32817 ft 469 kts 11°
2026-04-07 22:29 -35.92801 -61.47158 32816 ft 469 kts 11°
2026-04-07 22:29 -35.86393 -61.45640 32817 ft 469 kts 11°
2026-04-07 22:30 -35.79972 -61.44123 32817 ft 469 kts 11°
2026-04-07 22:30 -35.73594 -61.42617 32817 ft 469 kts 11°
2026-04-07 22:31 -35.67248 -61.41122 32816 ft 457 kts 11°
2026-04-07 22:31 -35.61103 -61.39677 32816 ft 448 kts 10°
2026-04-07 22:32 -35.54985 -61.38239 32817 ft 447 kts 10°
2026-04-07 22:32 -35.48837 -61.36798 32819 ft 449 kts 11°
2026-04-07 22:33 -35.42735 -61.35369 32857 ft 448 kts 10°
2026-04-07 22:33 -35.36593 -61.33933 32957 ft 449 kts 10°
2026-04-07 22:34 -35.30461 -61.32502 32997 ft 449 kts 10°
2026-04-07 22:34 -35.24322 -61.31071 33011 ft 448 kts 10°
2026-04-07 22:35 -35.18243 -61.29657 33009 ft 443 kts 11°
2026-04-07 22:35 -35.12190 -61.28250 32999 ft 442 kts 11°
2026-04-07 22:36 -35.06135 -61.26846 32989 ft 442 kts 11°
2026-04-07 22:36 -35.00077 -61.25442 32984 ft 442 kts 11°
2026-04-07 22:37 -34.94062 -61.24051 32976 ft 443 kts 11°
2026-04-07 22:37 -34.87984 -61.22647 32974 ft 442 kts 12°
2026-04-07 22:38 -34.81973 -61.21261 32972 ft 435 kts 12°
2026-04-07 22:38 -34.76096 -61.19908 32968 ft 429 kts 12°
2026-04-07 22:39 -34.70271 -61.18568 32967 ft 422 kts 12°
2026-04-07 22:39 -34.64544 -61.17253 32966 ft 418 kts 11°
2026-04-07 22:40 -34.58832 -61.15944 32965 ft 417 kts 11°
2026-04-07 22:40 -34.53114 -61.14635 32965 ft 417 kts 11°
2026-04-07 22:41 -34.47436 -61.13336 32964 ft 417 kts 11°
2026-04-07 22:41 -34.41731 -61.12034 32963 ft 417 kts 11°
2026-04-07 22:42 -34.36016 -61.10731 32964 ft 417 kts 11°
2026-04-07 22:42 -34.30297 -61.09428 32964 ft 417 kts 11°
2026-04-07 22:43 -34.24625 -61.08139 32958 ft 418 kts 11°
2026-04-07 22:43 -34.18917 -61.06843 32952 ft 416 kts 11°
2026-04-07 22:44 -34.13232 -61.05554 32952 ft 415 kts 11°
2026-04-07 22:44 -34.07539 -61.04265 32940 ft 416 kts 11°
2026-04-07 22:45 -34.01841 -61.02976 32931 ft 416 kts 11°
2026-04-07 22:45 -33.96180 -61.01697 32926 ft 416 kts 11°
2026-04-07 22:46 -33.90492 -61.00415 32917 ft 416 kts 11°
2026-04-07 22:46 -33.84784 -60.99129 32903 ft 416 kts 11°
2026-04-07 22:47 -33.79111 -60.97853 32908 ft 417 kts 11°
2026-04-07 22:47 -33.73462 -60.96584 32943 ft 419 kts 11°
2026-04-07 22:48 -33.67699 -60.95291 32959 ft 423 kts
2026-04-07 22:48 -33.61902 -60.93993 32964 ft 425 kts
2026-04-07 22:49 -33.56092 -60.92693 32964 ft 428 kts
2026-04-07 22:49 -33.50229 -60.91384 32964 ft 428 kts
2026-04-07 22:50 -33.44370 -60.90076 32964 ft 428 kts
2026-04-07 22:50 -33.38514 -60.88772 32964 ft 428 kts
2026-04-07 22:51 -33.32652 -60.87467 32964 ft 428 kts
2026-04-07 22:51 -33.26787 -60.86164 32964 ft 428 kts
2026-04-07 22:52 -33.20958 -60.84869 32964 ft 429 kts
2026-04-07 22:52 -33.15050 -60.83557 32965 ft 435 kts
2026-04-07 22:53 -33.09072 -60.82234 32964 ft 436 kts
2026-04-07 22:53 -33.03107 -60.80917 32964 ft 435 kts
2026-04-07 22:54 -32.97179 -60.79656 32954 ft 434 kts
2026-04-07 22:54 -32.94186 -60.79765 32969 ft 429 kts 350°
2026-04-07 22:54 -32.91190 -60.79863 32959 ft 434 kts
2026-04-07 22:55 -32.88254 -60.78991 32963 ft 440 kts 20°
2026-04-07 22:55 -32.85594 -60.77193 32964 ft 445 kts 36°
2026-04-07 22:55 -32.83372 -60.74598 32972 ft 449 kts 48°
2026-04-07 22:55 -32.81363 -60.71762 32969 ft 449 kts 46°
2026-04-07 22:56 -32.77217 -60.66213 32965 ft 445 kts 43°
2026-04-07 22:56 -32.72917 -60.61040 32962 ft 434 kts 40°
2026-04-07 22:57 -32.68529 -60.56155 32965 ft 437 kts 38°
2026-04-07 22:57 -32.64013 -60.51294 32964 ft 437 kts 38°
2026-04-07 22:58 -32.59489 -60.46478 32964 ft 437 kts 37°
2026-04-07 22:58 -32.54941 -60.41696 32964 ft 437 kts 37°
2026-04-07 22:59 -32.50382 -60.36939 32964 ft 437 kts 37°
2026-04-07 22:59 -32.45809 -60.32191 32964 ft 437 kts 37°
2026-04-07 23:00 -32.41234 -60.27458 32964 ft 437 kts 37°
2026-04-07 23:00 -32.36685 -60.22765 32964 ft 436 kts 37°
2026-04-07 23:01 -32.32124 -60.18068 32965 ft 430 kts 36°
2026-04-07 23:02 -32.25424 -60.11185 32964 ft 423 kts 36°
2026-04-07 23:02 -32.20999 -60.06647 32957 ft 425 kts 36°
2026-04-07 23:03 -32.16502 -60.02042 32955 ft 429 kts 36°
2026-04-07 23:03 -32.11983 -59.97421 32950 ft 428 kts 36°
2026-04-07 23:04 -32.07505 -59.92849 32938 ft 428 kts 36°
2026-04-07 23:04 -32.02994 -59.88249 32926 ft 428 kts 36°
2026-04-07 23:05 -31.98479 -59.83651 32926 ft 428 kts 36°
2026-04-07 23:05 -31.93972 -59.79068 32934 ft 428 kts 36°
2026-04-07 23:06 -31.89454 -59.74480 32924 ft 429 kts 36°
2026-04-07 23:06 -31.84970 -59.69932 32903 ft 425 kts 35°
2026-04-07 23:07 -31.80502 -59.65407 32896 ft 422 kts 35°
2026-04-07 23:07 -31.76045 -59.60899 32902 ft 422 kts 35°
2026-04-07 23:08 -31.71615 -59.56423 32898 ft 425 kts 35°
2026-04-07 23:08 -31.67100 -59.51868 32848 ft 428 kts 35°
2026-04-07 23:09 -31.62579 -59.47314 32810 ft 427 kts 35°
2026-04-07 23:09 -31.58066 -59.42773 32793 ft 427 kts 35°
2026-04-07 23:10 -31.53574 -59.38259 32787 ft 427 kts 35°
2026-04-07 23:10 -31.49057 -59.33725 32787 ft 427 kts 35°
2026-04-07 23:11 -31.44533 -59.29192 32787 ft 427 kts 35°
2026-04-07 23:11 -31.40011 -59.24666 32787 ft 427 kts 35°
2026-04-07 23:12 -31.35517 -59.20173 32788 ft 420 kts 33°
2026-04-07 23:12 -31.31120 -59.15783 32787 ft 413 kts 33°
2026-04-07 23:13 -31.26741 -59.11417 32787 ft 414 kts 33°
2026-04-07 23:13 -31.22382 -59.07076 32787 ft 416 kts 33°
2026-04-07 23:14 -31.17953 -59.02669 32787 ft 419 kts 33°
2026-04-07 23:14 -31.13529 -58.98257 32787 ft 418 kts 33°
2026-04-07 23:15 -31.09096 -58.93857 32787 ft 418 kts 33°
2026-04-07 23:15 -31.04686 -58.89492 32787 ft 418 kts 33°
2026-04-07 23:16 -31.00250 -58.85108 32787 ft 418 kts 33°
2026-04-07 23:16 -30.95809 -58.80724 32787 ft 418 kts 33°
2026-04-07 23:17 -30.91382 -58.76411 32787 ft 416 kts 32°
2026-04-07 23:17 -30.86871 -58.72187 32788 ft 414 kts 32°
2026-04-07 23:18 -30.83151 -58.68707 32787 ft 411 kts 32°
2026-04-07 23:18 -30.78692 -58.64537 32787 ft 411 kts 32°
2026-04-07 23:19 -30.74229 -58.60367 32787 ft 411 kts 32°
2026-04-07 23:19 -30.69769 -58.56203 32787 ft 411 kts 32°
2026-04-07 23:20 -30.65318 -58.52042 32787 ft 411 kts 32°
2026-04-07 23:20 -30.60895 -58.47896 32787 ft 411 kts 32°
2026-04-07 23:21 -30.56442 -58.43731 32787 ft 411 kts 32°
2026-04-07 23:21 -30.51983 -58.39569 32787 ft 410 kts 32°
2026-04-07 23:22 -30.47557 -58.35445 32787 ft 410 kts 32°
2026-04-07 23:22 -30.43100 -58.31298 32787 ft 410 kts 32°
2026-04-07 23:23 -30.38639 -58.27153 32787 ft 410 kts 32°
2026-04-07 23:23 -30.34185 -58.23020 32788 ft 408 kts 31°
2026-04-07 23:24 -30.29798 -58.18955 32787 ft 404 kts 31°
2026-04-07 23:24 -30.25401 -58.14885 32787 ft 404 kts 31°
2026-04-07 23:25 -30.21001 -58.10818 32787 ft 404 kts 31°
2026-04-07 23:25 -30.16620 -58.06773 32787 ft 404 kts 31°
2026-04-07 23:26 -30.12220 -58.02715 32787 ft 404 kts 31°
2026-04-07 23:26 -30.07815 -57.98658 32787 ft 405 kts 31°
2026-04-07 23:27 -30.03412 -57.94606 32787 ft 405 kts 31°
2026-04-07 23:27 -29.99001 -57.90553 32787 ft 405 kts 31°
2026-04-07 23:28 -29.94592 -57.86506 32787 ft 404 kts 31°
2026-04-07 23:28 -29.90214 -57.82492 32787 ft 404 kts 31°
2026-04-07 23:29 -29.85811 -57.78460 32787 ft 405 kts 31°
2026-04-07 23:29 -29.81398 -57.74423 32787 ft 405 kts 31°
2026-04-07 23:30 -29.76993 -57.70399 32787 ft 402 kts 30°
2026-04-07 23:30 -29.72621 -57.66408 32787 ft 401 kts 30°
2026-04-07 23:31 -29.68245 -57.62420 32787 ft 401 kts 30°
2026-04-07 23:31 -29.63894 -57.58458 32787 ft 401 kts 30°
2026-04-07 23:32 -29.59518 -57.54479 32793 ft 400 kts 32°
2026-04-07 23:32 -29.55141 -57.50502 32787 ft 401 kts 30°
2026-04-07 23:33 -29.50763 -57.46530 32787 ft 401 kts 30°
2026-04-07 23:33 -29.46379 -57.42556 32787 ft 401 kts 30°
2026-04-07 23:34 -29.42001 -57.38593 32787 ft 401 kts 30°
2026-04-07 23:34 -29.37624 -57.34634 32787 ft 401 kts 30°
2026-04-07 23:35 -29.33246 -57.30679 32787 ft 401 kts 30°
2026-04-07 23:35 -29.28863 -57.26725 32787 ft 401 kts 30°
2026-04-07 23:36 -29.24511 -57.22803 32787 ft 401 kts 29°
2026-04-07 23:36 -29.20143 -57.18870 32787 ft 397 kts 29°
2026-04-07 23:37 -29.15801 -57.14966 32787 ft 397 kts 29°
2026-04-07 23:37 -29.11447 -57.11055 32788 ft 397 kts 29°
2026-04-07 23:38 -29.07108 -57.07161 32842 ft 396 kts 29°
2026-04-07 23:38 -29.02796 -57.03296 32864 ft 396 kts 29°
2026-04-07 23:39 -28.98459 -56.99413 32874 ft 396 kts 29°
2026-04-07 23:39 -28.94113 -56.95526 32876 ft 396 kts 29°
2026-04-07 23:40 -28.89764 -56.91641 32876 ft 396 kts 29°
2026-04-07 23:40 -28.85446 -56.87788 32876 ft 396 kts 29°
2026-04-07 23:41 -28.81096 -56.83910 32876 ft 396 kts 29°
2026-04-07 23:41 -28.76750 -56.80040 32876 ft 396 kts 29°
2026-04-07 23:42 -28.72402 -56.76172 32876 ft 396 kts 29°
2026-04-07 23:42 -28.68054 -56.72309 32876 ft 395 kts 29°
2026-04-07 23:43 -28.63738 -56.68478 32870 ft 394 kts 30°
2026-04-07 23:43 -28.59440 -56.64667 32861 ft 394 kts 30°
2026-04-07 23:44 -28.55112 -56.60835 32854 ft 394 kts 29°
2026-04-07 23:44 -28.50809 -56.57028 32841 ft 394 kts 29°
2026-04-07 23:45 -28.46477 -56.53199 32826 ft 394 kts 30°
2026-04-07 23:45 -28.42144 -56.49374 32876 ft 393 kts 29°
2026-04-07 23:46 -28.37826 -56.45565 32905 ft 393 kts 29°
2026-04-07 23:46 -28.33500 -56.41755 32918 ft 393 kts 29°
2026-04-07 23:47 -28.29208 -56.37978 32924 ft 393 kts 33°
2026-04-07 23:47 -28.24893 -56.34184 32926 ft 393 kts 29°
2026-04-07 23:48 -28.20557 -56.30376 32927 ft 394 kts 29°
2026-04-07 23:48 -28.16230 -56.26580 32927 ft 393 kts 29°
2026-04-07 23:49 -28.11889 -56.22777 32927 ft 396 kts 30°
2026-04-07 23:49 -28.07534 -56.18964 32928 ft 400 kts 30°
2026-04-07 23:50 -28.03053 -56.15046 32929 ft 413 kts 30°
2026-04-07 23:50 -27.98445 -56.11020 32930 ft 423 kts 30°
2026-04-07 23:51 -27.93721 -56.06899 32931 ft 433 kts 30°
2026-04-07 23:51 -27.88965 -56.02754 32931 ft 435 kts 30°
2026-04-07 23:52 -27.84167 -55.98577 32933 ft 434 kts 30°
2026-04-07 23:52 -27.79377 -55.94411 32934 ft 434 kts 30°
2026-04-07 23:53 -27.74593 -55.90256 32935 ft 433 kts 30°
2026-04-07 23:53 -27.69810 -55.86106 32935 ft 433 kts 30°
2026-04-07 23:54 -27.65058 -55.81988 32935 ft 433 kts 30°
2026-04-07 23:54 -27.60271 -55.77845 32935 ft 434 kts 30°
2026-04-07 23:55 -27.55480 -55.73702 32935 ft 434 kts 30°
2026-04-07 23:55 -27.50672 -55.69549 32935 ft 437 kts 30°
2026-04-07 23:56 -27.45826 -55.65369 32934 ft 437 kts 30°
2026-04-07 23:56 -27.41025 -55.61231 32935 ft 437 kts 30°
2026-04-07 23:57 -27.36183 -55.57064 32632 ft 438 kts 30°
2026-04-07 23:57 -27.33760 -55.54980 32383 ft 438 kts 30°
2026-04-07 23:57 -27.31325 -55.52887 32132 ft 440 kts 30°
2026-04-07 23:57 -27.28893 -55.50798 31882 ft 441 kts 30°
2026-04-07 23:58 -27.26450 -55.48701 31632 ft 441 kts 30°
2026-04-07 23:58 -27.24005 -55.46603 31380 ft 442 kts 30°
2026-04-07 23:58 -27.21587 -55.44529 31134 ft 443 kts 30°
2026-04-07 23:58 -27.19126 -55.42419 30882 ft 445 kts 30°
2026-04-07 23:59 -27.16664 -55.40311 30633 ft 446 kts 30°
2026-04-07 23:59 -27.14193 -55.38195 30382 ft 447 kts 30°
2026-04-07 23:59 -27.11709 -55.36070 30133 ft 449 kts 30°
2026-04-07 23:59 -27.09208 -55.33931 29879 ft 455 kts 31°
2026-04-08 00:00 -27.06665 -55.31758 29629 ft 465 kts 31°
2026-04-08 00:00 -27.04057 -55.29530 29136 ft 475 kts 32°
2026-04-08 00:00 -27.01422 -55.27281 28150 ft 476 kts 32°
2026-04-08 00:00 -26.98820 -55.25061 27214 ft 476 kts 31°
2026-04-08 00:01 -26.96185 -55.22814 26459 ft 476 kts 31°
2026-04-08 00:01 -26.93531 -55.20552 25761 ft 480 kts 31°
2026-04-08 00:01 -26.90856 -55.18275 25061 ft 480 kts 31°
2026-04-08 00:01 -26.88218 -55.16029 24367 ft 472 kts 31°
2026-04-08 00:02 -26.85643 -55.13839 23687 ft 467 kts 31°
2026-04-08 00:02 -26.83066 -55.11648 23009 ft 461 kts 31°
2026-04-08 00:02 -26.80522 -55.09487 22327 ft 456 kts 31°
2026-04-08 00:02 -26.78008 -55.07353 21661 ft 450 kts 31°
2026-04-08 00:03 -26.75523 -55.05243 20997 ft 445 kts 31°
2026-04-08 00:03 -26.70644 -55.01107 19706 ft 433 kts 31°
2026-04-08 00:03 -26.68284 -54.99107 19078 ft 428 kts 31°
2026-04-08 00:04 -26.65897 -54.97086 18437 ft 422 kts 31°
2026-04-08 00:04 -26.63604 -54.95145 17822 ft 417 kts 31°
2026-04-08 00:04 -26.62044 -54.93825 17403 ft 413 kts 31°
2026-04-08 00:04 -26.59793 -54.91922 16797 ft 408 kts 31°
2026-04-08 00:05 -26.57543 -54.90020 16189 ft 403 kts 31°
2026-04-08 00:05 -26.55322 -54.88144 15590 ft 398 kts 30°
2026-04-08 00:05 -26.52424 -54.85697 14808 ft 391 kts 30°
2026-04-08 00:05 -26.50956 -54.84459 14413 ft 388 kts 30°
2026-04-08 00:06 -26.48812 -54.82650 13839 ft 383 kts 30°
2026-04-08 00:06 -26.46720 -54.80886 13283 ft 379 kts 31°
2026-04-08 00:06 -26.44620 -54.79117 12729 ft 376 kts 31°
2026-04-08 00:06 -26.42517 -54.77345 12217 ft 380 kts 31°
2026-04-08 00:07 -26.40436 -54.75593 11994 ft 369 kts 31°
2026-04-08 00:07 -26.38414 -54.73891 11802 ft 358 kts 31°
2026-04-08 00:07 -26.36461 -54.72248 11612 ft 345 kts 30°
2026-04-08 00:07 -26.34604 -54.70687 11429 ft 333 kts 30°
2026-04-08 00:08 -26.32789 -54.69162 11249 ft 322 kts 30°
2026-04-08 00:08 -26.31026 -54.67680 11071 ft 310 kts 30°
2026-04-08 00:08 -26.29337 -54.66261 10901 ft 297 kts 29°
2026-04-08 00:08 -26.27715 -54.64899 10738 ft 285 kts 29°
2026-04-08 00:09 -26.26165 -54.63599 10581 ft 274 kts 29°
2026-04-08 00:09 -26.24656 -54.62333 10432 ft 271 kts 28°
2026-04-08 00:09 -26.23154 -54.61073 10283 ft 277 kts 29°
2026-04-08 00:09 -26.21603 -54.59772 10127 ft 281 kts 30°
2026-04-08 00:10 -26.20034 -54.58458 9967 ft 283 kts 30°
2026-04-08 00:10 -26.18456 -54.57135 9693 ft 283 kts 30°
2026-04-08 00:10 -26.16891 -54.55825 9409 ft 278 kts 30°
2026-04-08 00:10 -26.15366 -54.54547 9127 ft 272 kts 30°
2026-04-08 00:11 -26.13873 -54.53292 8848 ft 267 kts 30°
2026-04-08 00:11 -26.12384 -54.52041 8571 ft 269 kts 30°
2026-04-08 00:11 -26.10900 -54.50797 8292 ft 272 kts 30°
2026-04-08 00:11 -26.09378 -54.49523 8004 ft 275 kts 30°
2026-04-08 00:12 -26.07846 -54.48242 7711 ft 276 kts 30°
2026-04-08 00:12 -26.06320 -54.46967 7415 ft 271 kts 31°
2026-04-08 00:12 -26.04829 -54.45722 7126 ft 265 kts 30°
2026-04-08 00:12 -26.03370 -54.44505 6840 ft 259 kts 30°
2026-04-08 00:13 -26.01927 -54.43301 6561 ft 260 kts 30°
2026-04-08 00:13 -26.00467 -54.42084 6279 ft 264 kts 30°
2026-04-08 00:13 -25.98972 -54.40838 5988 ft 273 kts 31°
2026-04-08 00:13 -25.97464 -54.39582 5689 ft 274 kts 31°
2026-04-08 00:14 -25.95938 -54.38311 5390 ft 272 kts 31°
2026-04-08 00:14 -25.94440 -54.37063 5126 ft 265 kts 31°
2026-04-08 00:14 -25.92996 -54.35861 4978 ft 253 kts 31°
2026-04-08 00:14 -25.91615 -54.34712 4847 ft 244 kts 31°
2026-04-08 00:15 -25.90278 -54.33599 4722 ft 241 kts 31°
2026-04-08 00:15 -25.88930 -54.32504 4554 ft 239 kts 28°
2026-04-08 00:15 -25.87520 -54.31656 4433 ft 222 kts 18°
2026-04-08 00:15 -25.86128 -54.31001 4399 ft 209 kts 17°
2026-04-08 00:16 -25.84840 -54.30382 4324 ft 193 kts 17°
2026-04-08 00:16 -25.83654 -54.29804 4197 ft 179 kts 16°
2026-04-08 00:16 -25.82513 -54.29691 4004 ft 158 kts 336°
2026-04-08 00:16 -25.81625 -54.30334 3999 ft 154 kts 315°
2026-04-08 00:17 -25.80912 -54.31215 3791 ft 155 kts 305°
2026-04-08 00:17 -25.80329 -54.32204 3571 ft 150 kts 301°
2026-04-08 00:17 -25.79809 -54.33184 3366 ft 146 kts 300°
2026-04-08 00:17 -25.79302 -54.34165 3181 ft 147 kts 298°
2026-04-08 00:18 -25.78839 -54.35163 2992 ft 150 kts 295°
2026-04-08 00:18 -25.78389 -54.36203 2791 ft 149 kts 293°
2026-04-08 00:18 -25.77943 -54.37257 2589 ft 151 kts 294°
2026-04-08 00:18 -25.77497 -54.38319 2390 ft 150 kts 293°
2026-04-08 00:19 -25.77065 -54.39353 2193 ft 150 kts 293°
2026-04-08 00:19 -25.76624 -54.40410 1989 ft 151 kts 293°
2026-04-08 00:19 -25.76179 -54.41464 1794 ft 151 kts 294°
2026-04-08 00:19 -25.75751 -54.42486 1680 ft 141 kts 293°
2026-04-08 00:20 -25.75355 -54.43459 1444 ft 136 kts 294°
2026-04-08 00:20 -25.74967 -54.44399 1293 ft 132 kts 295°
2026-04-08 00:20 -25.74589 -54.45305 1130 ft 131 kts 295°
2026-04-08 00:20 -25.74201 -54.46225 948 ft 132 kts 295°
2026-04-08 00:21 -25.73839 -54.47074 924 ft 99 kts 294°
2026-04-08 00:21 -25.73673 -54.47472 924 ft 17 kts 305°
2026-04-08 00:21 -25.73598 -54.47507 924 ft 8 kts 342°
2026-04-08 00:21 -25.73564 -54.47519 924 ft 2 kts 342°
2026-04-08 00:22 -25.73537 -54.47530 924 ft 9 kts 340°
2026-04-08 00:22 -25.73453 -54.47564 924 ft 15 kts 340°
2026-04-08 00:22 -25.73374 -54.47593 924 ft 9 kts 338°
2026-04-08 00:22 -25.73334 -54.47627 924 ft 8 kts 306°
2026-04-08 00:23 -25.73270 -54.47621 924 ft 9 kts 23°
2026-04-08 00:23 -25.73257 -54.47615 924 ft 0 kts 24°
2026-04-08 00:23 -25.73252 -54.47613 924 ft 0 kts 24°